Weather observations for the past three days for
Beaumont/Port Arthur Southeast Texas Regional Airport
Imperial (Metric)
Date Time (cdt) Wind (mph) Vis. (mi.) Weather Sky Cond. Temperature (ºF) Relative Humidity Wind Chill (°F) Heat Index (°F) Pressure Precipitation (in)
Air Dwpt 6 hour altimeter (in) sea level (mb) 1 hr 3 hr 6 hr
Max. Min.
14 06:53 NE 5 10.00 Fair CLR 77 69.1 79 73.9 77% 79 29.94 1013.9
14 05:53 Calm 10.00 Fair CLR 75 72 90% 74 29.92 1013.3
14 04:53 N 5 10.00 Fair CLR 75.9 72 88% 76 29.91 1012.9
14 03:53 Calm 10.00 Fair CLR 75.9 73 91% 76 29.91 1012.7
14 02:53 N 3 10.00 Partly Cloudy SCT033 75.9 73 91% 76 29.91 1012.6
14 01:53 Calm 10.00 Fair CLR 78.1 73 85% 81 29.91 1012.6
14 00:53 N 6 10.00 Fair CLR 77 73.9 91 75.9 90% 78 29.91 1012.6
13 23:53 NW 3 10.00 Fair CLR 77 73.9 90% 78 29.9 1012.6
13 22:53 Calm 10.00 Fair CLR 79 73.9 85% 83 29.91 1012.8
13 21:53 SW 3 10.00 Fair CLR 79 75 88% 83 29.9 1012.4
13 20:53 NE 3 10.00 Fair CLR 84 69.1 61% 88 29.89 1012.0
13 19:53 NE 5 10.00 Fair CLR 88 66.9 50% 91 29.88 1011.8
13 18:53 NE 9 10.00 Fair CLR 91 68 93.9 88 47% 95 29.87 1011.5
13 17:53 NE 6 10.00 Fair CLR 93 69.1 46% 98 29.88 1011.6
13 16:53 N 5 10.00 A Few Clouds FEW060 93.9 70 46% 100 29.89 1012.0
13 15:53 N 7 10.00 Mostly Cloudy SCT055 BKN070 91.9 71.1 51% 99 29.9 1012.3
13 14:53 N 3 10.00 Partly Cloudy FEW048 SCT060 91 71.1 52% 98 29.91 1012.7
13 13:53 N 8 10.00 Mostly Cloudy SCT045 BKN055 89.1 72 57% 96 29.92 1013.2
13 12:53 NE 5 10.00 Fair CLR 91 71.1 91 77 52% 98 29.94 1013.9
13 11:53 NE 5 10.00 Fair CLR 90 70 52% 95 29.95 1014.2
13 10:53 NE 8 10.00 Fair CLR 87.1 68 53% 91 29.95 1014.2
13 09:53 NE 9 10.00 Fair CLR 84.9 68 57% 88 29.95 1014.2
13 08:53 E 10 10.00 Fair CLR 82 66.9 60% 85 29.95 1014.0
13 07:53 NE 7 10.00 Fair CLR 80.1 70 71% 83 29.93 1013.5
13 06:53 NE 5 10.00 Fair CLR 77 72 78.1 75 85% 78 29.91 1012.9
13 05:53 NE 7 10.00 Fair CLR 77 72 85% 78 29.9 1012.4
13 04:53 NE 6 10.00 Overcast OVC044 78.1 73 85% 81 29.88 1011.9
13 03:53 NE 5 10.00 Partly Cloudy SCT043 75.9 73 91% 76 29.87 1011.5
13 02:53 N 5 10.00 Fair CLR 75.9 73 91% 76 29.87 1011.6
13 01:53 Calm 10.00 Fair CLR 77 75 94% 78 29.88 1011.9
13 00:53 N 3 10.00 Fair CLR 78.1 75 89.1 77 90% 81 29.9 1012.3
12 23:53 S 5 10.00 Partly Cloudy SCT050 79 75 88% 83 29.91 1012.8
12 22:53 Calm 10.00 Fair CLR 80.1 75 85% 85 29.91 1012.8
12 21:53 NW 5 10.00 A Few Clouds FEW049 80.1 75.9 87% 85 29.9 1012.4
12 20:53 W 3 10.00 Fair CLR 81 75.9 85% 87 29.89 1012.0
12 19:53 SW 6 10.00 Fair CLR 82.9 75.9 79% 91 29.89 1012.0
12 18:53 N 5 10.00 Mostly Cloudy BKN060 89.1 70 93 88 53% 94 29.88 1011.8
12 17:53 NE 9 10.00 A Few Clouds FEW085 91 70 50% 97 29.87 1011.5
12 16:53 Calm 10.00 A Few Clouds FEW049 91.9 71.1 51% 99 29.88 1011.8
12 15:53 NE 8 10.00 A Few Clouds FEW065 91 72 54% 99 29.9 1012.3
12 14:53 NE 5 10.00 A Few Clouds FEW048 FEW065 93 72 50% 101 29.91 1012.8
12 13:53 Vrbl 5 10.00 Fair CLR 91 73 56% 100 29.93 1013.3
12 12:53 E 5 10.00 Fair CLR 88 72 89.1 75 59% 95 29.94 1013.8
12 11:53 NE 7 10.00 Fair CLR 88 72 59% 95 29.95 1014.1
12 10:53 NE 10 10.00 Fair CLR 84.9 71.1 63% 90 29.95 1014.3
12 09:53 NE 7 10.00 Fair CLR 82 70 67% 86 29.95 1014.2
12 08:53 NE 10 10.00 Fair CLR 79 68 69% 81 29.94 1013.8
12 06:53 NE 6 10.00 Fair CLR 75 70 75.9 73 84% 75 29.92 1013.0
12 05:53 N 6 9.00 Fair CLR 75 73 94% 73 29.9 1012.5
12 04:53 N 6 9.00 Fair CLR 75.9 73.9 94% 75 29.89 1012.0
12 03:53 N 7 5.00 Fog/Mist CLR 75 73.9 96% 73 29.88 1011.8
12 02:53 Calm 6.00 Fog/Mist CLR 73 72 96% 29.88 1011.7
12 01:53 NE 5 10.00 Fair CLR 75 73 94% 73 29.88 1011.9
12 00:53 Calm 10.00 Fair CLR 73.9 72 82.9 73 94% 29.9 1012.3 0.76
11 23:53 S 5 10.00 Fair CLR 73.9 72 94% 29.9 1012.5
11 22:53 S 3 10.00 Partly Cloudy FEW032 FEW080 SCT120 73.9 73 97% 29.91 1012.7 0.04
11 21:53 NW 7 5.00 Light Rain Fog/Mist BKN042 BKN060 OVC075 73.9 72 94% 29.92 1013.0 0.06 0.72
11 20:53 Vrbl 5 4.00 Heavy Rain Fog/Mist FEW060 SCT075 OVC085 73.9 73 97% 29.88 1011.7 0.42
11 19:53 SE 9 1.25 Thunderstorm Heavy Rain Fog/Mist BKN035 OVC046 73.9 73 97% 29.86 1011.1 0.24
11 18:53 NW 5 10.00 Thunderstorm in Vicinity BKN045 BKN065 82.9 73 93.9 82 72% 89 29.8 1009.0
11 17:53 Vrbl 6 10.00 Mostly Cloudy SCT044 SCT055 BKN070 88 75 66% 98 29.8 1009.2
11 16:53 S 6 10.00 Overcast FEW041 BKN055 OVC100 87.1 75 67% 97 29.81 1009.4
11 15:53 S 7 10.00 Partly Cloudy FEW037 SCT046 90 75.9 63% 102 29.82 1009.7
11 14:53 SW 7 10.00 Partly Cloudy FEW046 SCT055 88 75.9 68% 99 29.85 1010.6
11 13:53 Vrbl 6 10.00 Mostly Cloudy SCT043 BKN050 89.1 73.9 61% 98 29.86 1011.0
11 12:53 N 7 10.00 A Few Clouds FEW037 FEW050 91.9 75 91.9 77 58% 103 29.87 1011.5
11 11:53 E 5 10.00 A Few Clouds FEW028 91 75 59% 102 29.88 1011.6
11 10:53 Vrbl 3 10.00 Partly Cloudy SCT023 88 75 66% 98 29.88 1011.9
11 09:53 NE 5 10.00 Fair CLR 84.9 75.9 75% 94 29.88 1011.9
11 08:53 NE 8 10.00 Fair CLR 82 75 79% 89 29.87 1011.5
11 07:53 NE 9 9.00 Fair CLR 80.1 75 85% 85 29.87 1011.6
Date Time (cdt) Wind (mph) Vis. (mi.) Weather Sky Cond. Air Dwpt Max. Min. Relative Humidity Wind Chill (°F) Heat Index (°F) altimeter (in) sea level (mb) 1 hr 3 hr 6 hr
6 hour
Temperature (ºF) Pressure Precipitation (in)